| time (UTC) | temp F | wind direction | speed MPH | gust MPH | rain 1hr in | rain 24hr in | rain mn in | humidity % | barometer mb |
| 20260508062732 | 48 | 18 | 6.0 | 9.0 | 0.00 | 0.00 | 0.00 | 34 | 1026.6 |
| 20260508060732 | 47 | 54 | 6.0 | 9.0 | 0.00 | 0.00 | 0.00 | 40 | 1026.3 |
| 20260508052733 | 43 | 29 | 4.0 | 6.0 | 0.00 | 0.00 | 0.00 | 55 | 1026.0 |
| 20260508050732 | 42 | 17 | 3.0 | 4.0 | 0.00 | 0.00 | 0.00 | 63 | 1025.8 |
| 20260508044733 | 42 | 18 | 1.0 | 2.0 | 0.00 | 0.00 | 0.00 | 67 | 1025.8 |
| 20260508042731 | 38 | 0.0 | 1.0 | 0.00 | 0.00 | 0.00 | 76 | 1025.7 | |
| 20260508040731 | 33 | 283 | 1.0 | 2.0 | 0.00 | 0.00 | 0.00 | 85 | 1025.6 |
| 20260508034731 | 30 | 267 | 3.0 | 3.0 | 0.00 | 0.00 | 0.00 | 87 | 1025.5 |
| 20260508032732 | 29 | 267 | 3.0 | 4.0 | 0.00 | 0.00 | 0.00 | 88 | 1025.3 |
| 20260508030732 | 27 | 267 | 2.0 | 2.0 | 0.00 | 0.00 | 0.00 | 93 | 1025.2 |
| 20260508024731 | 27 | 253 | 2.0 | 3.0 | 0.00 | 0.00 | 0.00 | 93 | 1025.0 |
| 20260508022730 | 27 | 263 | 2.0 | 2.0 | 0.00 | 0.00 | 0.00 | 92 | 1024.6 |
| 20260508020731 | 27 | 275 | 2.0 | 3.0 | 0.00 | 0.00 | 0.00 | 87 | 1024.3 |
| 20260508014731 | 27 | 322 | 1.0 | 2.0 | 0.00 | 0.00 | 0.00 | 88 | 1024.1 |
| 20260508012731 | 28 | 0.0 | 1.0 | 0.00 | 0.00 | 0.00 | 90 | 1023.8 | |
| 20260508010732 | 27 | 345 | 2.0 | 3.0 | 0.00 | 0.00 | 0.00 | 90 | 1023.7 |
| 20260508004732 | 27 | 353 | 2.0 | 3.0 | 0.00 | 0.00 | 0.00 | 90 | 1023.5 |
| 20260508002732 | 29 | 329 | 2.0 | 4.0 | 0.00 | 0.00 | 0.00 | 87 | 1023.3 |
| 20260507234732 | 31 | 339 | 2.0 | 3.0 | 0.00 | 0.00 | 0.00 | 80 | 1022.7 |
| 20260507232731 | 31 | 353 | 3.0 | 5.0 | 0.00 | 0.00 | 0.00 | 76 | 1022.5 |
| 20260507230731 | 30 | 1 | 3.0 | 5.0 | 0.00 | 0.00 | 0.00 | 75 | 1022.4 |
| 20260507224730 | 34 | 343 | 3.0 | 4.0 | 0.00 | 0.00 | 0.00 | 70 | 1022.2 |
| 20260507222731 | 33 | 326 | 2.0 | 3.0 | 0.00 | 0.00 | 0.00 | 67 | 1022.0 |
| 20260507220731 | 35 | 288 | 2.0 | 3.0 | 0.00 | 0.00 | 0.00 | 65 | 1021.8 |
| 20260507212730 | 35 | 315 | 3.0 | 4.0 | 0.00 | 0.00 | 0.00 | 63 | 1021.3 |
| 20260507210730 | 37 | 269 | 4.0 | 4.0 | 0.00 | 0.00 | 0.00 | 55 | 1021.0 |
| 20260507204731 | 38 | 282 | 4.0 | 4.0 | 0.00 | 0.00 | 0.00 | 54 | 1020.7 |
| 20260507202730 | 41 | 304 | 4.0 | 6.0 | 0.00 | 0.00 | 0.00 | 49 | 1020.4 |
| 20260507200731 | 41 | 313 | 4.0 | 6.0 | 0.00 | 0.00 | 0.00 | 49 | 1020.1 |
| 20260507194730 | 43 | 325 | 4.0 | 8.0 | 0.00 | 0.00 | 0.00 | 46 | 1019.8 |
| 20260507192730 | 44 | 322 | 3.0 | 6.0 | 0.00 | 0.00 | 0.00 | 44 | 1019.5 |
| 20260507190729 | 45 | 326 | 4.0 | 7.0 | 0.00 | 0.00 | 0.00 | 41 | 1019.3 |
| 20260507184730 | 46 | 336 | 6.0 | 10.0 | 0.00 | 0.00 | 0.00 | 39 | 1019.1 |
| 20260507182729 | 47 | 343 | 6.0 | 13.0 | 0.00 | 0.00 | 0.00 | 35 | 1018.9 |
| 20260507180729 | 49 | 333 | 6.0 | 10.0 | 0.00 | 0.00 | 0.00 | 32 | 1018.6 |
| 20260507174730 | 50 | 337 | 7.0 | 15.0 | 0.00 | 0.00 | 0.00 | 29 | 1018.3 |
| 20260507172729 | 51 | 333 | 9.0 | 14.0 | 0.00 | 0.00 | 0.00 | 27 | 1018.1 |
| 20260507170729 | 52 | 327 | 10.0 | 17.0 | 0.00 | 0.00 | 0.00 | 22 | 1017.9 |
| 20260507164730 | 53 | 309 | 10.0 | 15.0 | 0.00 | 0.00 | 0.00 | 20 | 1017.7 |
| 20260507162729 | 53 | 322 | 10.0 | 17.0 | 0.00 | 0.00 | 0.00 | 19 | 1017.5 |
| 20260507160730 | 54 | 318 | 10.0 | 18.0 | 0.00 | 0.00 | 0.00 | 19 | 1017.4 |
| 20260507154729 | 54 | 335 | 11.0 | 17.0 | 0.00 | 0.00 | 0.00 | 19 | 1017.2 |
| 20260507152728 | 54 | 346 | 11.0 | 19.0 | 0.00 | 0.00 | 0.00 | 18 | 1017.0 |
| 20260507150731 | 55 | 310 | 11.0 | 17.0 | 0.00 | 0.00 | 0.00 | 18 | 1016.8 |
| 20260507142730 | 56 | 291 | 13.0 | 22.0 | 0.00 | 0.00 | 0.00 | 18 | 1016.4 |
| 20260507140729 | 55 | 287 | 13.0 | 22.0 | 0.00 | 0.00 | 0.00 | 19 | 1016.3 |
| 20260507134730 | 56 | 308 | 11.0 | 20.0 | 0.00 | 0.00 | 0.00 | 19 | 1016.3 |
| 20260507132728 | 57 | 295 | 11.0 | 17.0 | 0.00 | 0.00 | 0.00 | 20 | 1016.2 |
| 20260507130729 | 56 | 280 | 13.0 | 19.0 | 0.00 | 0.00 | 0.00 | 21 | 1016.1 |
| 20260507124728 | 56 | 253 | 7.0 | 12.0 | 0.00 | 0.00 | 0.00 | 18 | 1016.2 |
| 20260507122728 | 56 | 303 | 4.0 | 14.0 | 0.00 | 0.00 | 0.00 | 18 | 1016.2 |
| 20260507120729 | 55 | 253 | 5.0 | 10.0 | 0.00 | 0.00 | 0.00 | 17 | 1016.1 |
| 20260507114729 | 55 | 286 | 9.0 | 13.0 | 0.00 | 0.00 | 0.00 | 19 | 1016.1 |
| 20260507112727 | 54 | 311 | 8.0 | 15.0 | 0.00 | 0.00 | 0.00 | 18 | 1016.3 |
| 20260507110728 | 55 | 263 | 4.0 | 9.0 | 0.00 | 0.00 | 0.00 | 19 | 1016.2 |
| 20260507102728 | 53 | 277 | 7.0 | 14.0 | 0.00 | 0.00 | 0.00 | 21 | 1016.2 |
| 20260507100727 | 53 | 307 | 8.0 | 13.0 | 0.00 | 0.00 | 0.00 | 21 | 1016.2 |
| 20260507094728 | 53 | 227 | 5.0 | 10.0 | 0.00 | 0.00 | 0.00 | 21 | 1016.1 |
| 20260507090728 | 52 | 283 | 6.0 | 12.0 | 0.00 | 0.00 | 0.00 | 21 | 1016.3 |
| 20260507084727 | 51 | 270 | 6.0 | 9.0 | 0.00 | 0.00 | 0.00 | 23 | 1016.3 |
| 20260507082728 | 51 | 280 | 3.0 | 8.0 | 0.00 | 0.00 | 0.00 | 23 | 1016.3 |
| 20260507080727 | 50 | 156 | 4.0 | 9.0 | 0.00 | 0.00 | 0.00 | 22 | 1016.3 |
| 20260507074727 | 49 | 254 | 2.0 | 4.0 | 0.00 | 0.00 | 0.00 | 22 | 1016.4 |
| 20260507072727 | 49 | 105 | 3.0 | 7.0 | 0.00 | 0.00 | 0.00 | 24 | 1016.5 |
| 20260507070727 | 49 | 60 | 5.0 | 8.0 | 0.00 | 0.00 | 0.00 | 27 | 1016.4 |
| 20260507064727 | 47 | 111 | 6.0 | 9.0 | 0.00 | 0.00 | 0.00 | 26 | 1016.5 |